Regional Weather Roundup
Issued by NWS

Home | Current Version | Previous Version | Text Only | Print | Product List | Glossary Off
Versions: 1 2 3 4 5 6 7 8 9 10 11 12 13 14 15 16 17 18 19 20 21 22 23 24 25 26 27 28 29 30 31 32 33 34 35 36 37 38 39 40 41 42 43 44 45 46 47 48 49 50

000
ASUS43 KLOT 250004
RWRIL

ILLINOIS REGIONAL WEATHER ROUNDUP
NATIONAL WEATHER SERVICE CHICAGO/ROMEOVILLE IL
700 PM CDT WED MAY 24 2017

NOTE: "FAIR" INDICATES FEW OR NO CLOUDS BELOW 12,000 FEET WITH NO
SIGNIFICANT WEATHER AND/OR OBSTRUCTIONS TO VISIBILITY.

* THESE STATIONS ARE NOT UNDER NWS QUALITY CONTROL. THEY ALSO MAY NOT
  REPORT WEATHER SUCH AS PRECIPITATION OR FOG.

ILZ001-002-007-009-015-016-024-250100-
NORTHWEST ILLINOIS

CITY           SKY/WX    TMP DP  RH WIND       PRES   REMARKS
MOLINE         CLOUDY    63  51  65 N8        29.61R
6HR MIN TEMP:  60; 6HR MAX TEMP:  64; 6HR PCP: TRACE;

STERLING*      CLOUDY    58  53  84 N12       29.61S
$$

ILZ003-004-008-010-011-017-018-250100-
NORTH CENTRAL ILLINOIS

CITY           SKY/WX    TMP DP  RH WIND       PRES   REMARKS
ROCKFORD       CLOUDY    59  53  80 N12       29.61S
6HR MIN TEMP:  57; 6HR MAX TEMP:  61;

FREEPORT*      CLOUDY    55  51  86 N8        29.64R
ROCHELLE*      CLOUDY    58  54  85 N13       29.60R
DE KALB*       CLOUDY    59  54  81 N12G18    29.59S
$$

ILZ005-006-012>014-019>023-250100-
NORTHEAST ILLINOIS

CITY           SKY/WX    TMP DP  RH WIND       PRES   REMARKS
CHICAGO-OHARE  CLOUDY    60  50  69 N18G28    29.54F
6HR MIN TEMP:  59; 6HR MAX TEMP:  62;

CHICAGO-MIDWAY CLOUDY    55  51  86 N13       29.55S
6HR MIN TEMP:  54; 6HR MAX TEMP:  61; 6HR PCP:  0.01;

AURORA         CLOUDY    61  53  75 N15       29.56S
6HR MIN TEMP:  60; 6HR MAX TEMP:  63; 6HR PCP: TRACE;

LANSING*       LGT RAIN  51  51 100 N9G17     29.55S
WAUKEGAN       CLOUDY    58  50  75 N14G25    29.56S
6HR MIN TEMP:  57; 6HR MAX TEMP:  60;

DUPAGE AIRPORT CLOUDY    60  53  77 N17       29.55S
6HR MIN TEMP:  59; 6HR MAX TEMP:  62;

WHEELING       CLOUDY    58  51  78 N21G30    29.56F
6HR MIN TEMP:  57; 6HR MAX TEMP:  61;

MORRIS*        CLOUDY    62  54  74 CALM      29.54S
NORTHERLY ISL    N/A     51  48  89 N17         N/A
$$

LMZ740>746-250100-
SOUTHERN LAKE MICHIGAN

STATION/POSITION SKY/WX   TEMP    WIND        PRES    VSBY  WAVE
                          AIR SEA DIR/SP/G                  HT/PER
                          (F)     (DEG/KT/KT) (MB)    (MI)  (FT/S)
SOUTHERN BUOY              47 45   10/ 17/ 23 1000.4          4/ 5
WILMETTE HARBOR            48 53                N/A           6/ 5
HARRISON CRIB              50     350/ 25/ 30   N/A
BURNHAM HARBOR             51     340/ 16/ 22   N/A
CALUMET HARBOR             50     340/ 11/ 15 1000.6R
BURNS HARBOR               50     330/ 16/ 19 1000.7S
MICHIGAN CITY              50     320/ 10/ 10   N/A
MICHIGAN CITY 6N           50 53  320/  8/ 12   N/A           4/ 5
ST. JOSEPH                 56 56  210/  2/  4  999.9R         3/ 5
$$

ILZ025>027-034>036-040-047-049-050-058-095>099-250100-
WEST-CENTRAL ILLINOIS

CITY           SKY/WX    TMP DP  RH WIND       PRES   REMARKS
QUINCY         MOSUNNY   62  52  69 NW14      29.60R
GALESBURG*     CLOUDY    59  52  78 N13       29.60S
MACOMB*        MOSUNNY   61  54  77 NE14      29.62R
JACKSONVILLE*  CLOUDY    59  55  85 N12       29.58R
$$

ILZ028>032-037-038-041>044-048-051>054-059>061-250100-
CENTRAL ILLINOIS

CITY           SKY/WX    TMP DP  RH WIND       PRES   REMARKS
BLOOMINGTON    CLOUDY    59  55  88 N16G23    29.55R
DECATUR        CLOUDY    60  55  83 N16       29.53R
PEORIA         CLOUDY    60  54  80 N8        29.57S
6HR MIN TEMP:  60; 6HR MAX TEMP:  64;

LACON*         CLOUDY    59  55  86 N7        29.57S
LINCOLN*       CLOUDY    62  55  78 N10G20    29.55R
SPRINGFIELD    MOSUNNY   63  56  78 N15G21    29.55S
6HR MIN TEMP:  60; 6HR MAX TEMP:  68; 6HR PCP:  0.12;

TAYLORVILLE    NOT AVBL
$$

ILZ033-039-045-046-055>057-062-063-250100-
EAST-CENTRAL ILLINOIS

CITY           SKY/WX    TMP DP  RH WIND       PRES   REMARKS
CHAMPAIGN      CLOUDY    60  54  80 N14       29.51R
MATTOON        LGT RAIN  59  58  96 N10       29.50R
$$

ILZ079-100>102-250100-
SOUTHWEST ILLINOIS

CITY           SKY/WX    TMP DP  RH WIND       PRES   REMARKS
BELLEVILLE     MOSUNNY   64  51  62 NW14      29.56R
CAHOKIA*       LGT RAIN  60  50  69 NW10      29.57R
SPARTA*        CLOUDY    63  49  61 N5        29.57R
$$

ILZ064>066-069>071-074>076-080>082-084>086-088>090-092>094-250100-
SOUTH-CENTRAL ILLINOIS

CITY           SKY/WX    TMP DP  RH WIND       PRES   REMARKS
CARBONDALE     PTSUNNY   65  51  60 W6        29.54R
6HR MIN TEMP:  63; 6HR MAX TEMP:  67;

CAIRO*         PTSUNNY   64  48  56 W6        29.55R
EFFINGHAM*     CLOUDY    59  59  99 W6        29.53R
MT. VERNON     LGT RAIN  60  57  89 W3        29.53S
CENTRALIA*     LGT RAIN  59  55  86 NW7       29.53R
SALEM*         DRIZZLE   60  53  76 NW8       29.53R
$$

ILZ067-068-072-073-078-083-087-091-250100-
SOUTHEAST ILLINOIS

CITY           SKY/WX    TMP DP  RH WIND       PRES   REMARKS
LAWRENCEVILLE  LGT RAIN  59  57  93 NW12      29.49R
FLORA*         DRIZZLE   60  56  87 NW5       29.52S
FAIRFIELD*     LGT RAIN  61  55  79 CALM      29.51R
HARRISBURG*    CLOUDY    61  52  72 N8        29.54R
ROBINSON*      LGT RAIN  57  56  95 NW9       29.49R
CARMI*         LGT RAIN  59  56  91 W8        29.51S
$$

ABBREVIATIONS USED IN REMARKS
   TC - TEMPERATURE IN CELSIUS
  WCI - WIND CHILL INDEX
   HX - HEAT INDEX
  VSB - VISIBILITY
$$




USA.gov is the U.S. government's official web portal to all federal, state and local government web resources and services.